sat.trackr.live / text

‹ back to catalog

STARLINK-36657

NORAD 67835 · 2026-033Q

PAYLOAD ACTIVE UNKNOWN

§ Identity

Operator
Country
US
Launch date
2026-02-16
Launch site
AFETR
Launch vehicle
Mass (kg)
RCS (m²)

Purposes: comms

External: N2YO · Heavens-Above · Gunter

§ Orbital elements

Epoch: 2026-09-19T08:12:21.640896Z

Period
94.27 min
Inclination
42.9998°
Eccentricity
0.0001379
Mean motion
15.27584223 rev/d
Perigee alt
482.1 km
Apogee alt
484.0 km
Semi-major
6,861.2 km
B*
5.1673e-4
RAAN
253.1319°
Arg perigee
258.0820°
Mean anomaly
101.9877°
Rev number
3,429

§ Raw data

STARLINK-366571 67835U 26033Q   26262.34191714  .00013986  00000+0  51673-3 0  99922 67835  42.9998 253.1319 0001379 258.0820 101.9877 15.27584223 34291

JSON: /api/v1/satellites/67835 · /tle

For live sub-satellite position, see the globe view (requires WebGL).

§ Visibility from observer

Set your observer location to see the next 7 days of passes ≥ 10°. The values pass through the URL so the page stays shareable.

No JS? Fill the form by hand. The geolocation button needs JavaScript.